Hourly Data Report for July 27, 2021

BONAVISTA
NEWFOUNDLAND
Current Station Operator: ECCC - MSC

48°40'02.000" N
53°06'51.000" W
25.60 m
8400601
71178
AVA

Download Data

Hourly Data (July 2021)
Hourly Data Report for July 27, 2021
TIME
LST
Temp Definition
°C
Dew Point Definition
°C
Rel Hum Definition
%
Precip. Amount Definition
mm

Wind Dir Definition
10's deg

Wind Spd Definition
km/h
Visibility Definition
km
Stn Press Definition
kPa
Hmdx Definition


Wind Chill Definition


Weather Definition


00:30 12.4 11.3 93 0.0 19 16   101.34     LegendNANA
01:30 13.9 12.5 91 0.0 19 18   101.29     LegendNANA
02:30 13.9 12.7 93 0.0 18 14   101.30     LegendNANA
03:30 13.4 12.3 93 0.0 19 26   101.28     LegendNANA
04:30 13.8 12.7 93 0.0 18 19   101.28     LegendNANA
05:30 14.0 12.9 94 0.0 14 18   101.27     LegendNANA
06:30 14.5 13.4 93 0.0 16 26   101.24     LegendNANA
07:30 14.8 13.4 92 0.0 17 33   101.16     LegendNANA
08:30 16.2 14.4 89 0.0 17 37   101.11     LegendNANA
09:30 17.2 15.1 88 0.0 18 28   101.08     LegendNANA
10:30 20.5 17.1 81 0.0 19 37   101.06 26   LegendNANA
11:30 20.9 17.2 79 0.0 20 37   101.04 26   LegendNANA
12:30 20.1 17.5 85 0.0 20 36   101.01 26   LegendNANA
13:30 21.0 18.0 83 0.0 20 27   100.99 27   LegendNANA
14:30 21.2 18.0 82 0.0 21 31   100.98 27   LegendNANA
15:30 22.0 18.1 78 0.0 22 26   100.93 28   LegendNANA
16:30 20.6 18.2 86 0.0 20 29   100.93 27   LegendNANA
17:30 20.4 18.1 87 0.0 19 32   100.92 26   LegendNANA
18:30 19.4 17.8 90 0.0 18 26   100.89     LegendNANA
19:30 19.1 17.9 93 0.0 20 33   100.84     LegendNANA
20:30 18.9 17.4 91 0.0 20 32   100.91     LegendNANA
21:30 18.3 17.1 92 0.0 20 27   100.95     LegendNANA
22:30 17.5 16.5 94 0.0 20 30   100.92     LegendNANA
23:30 17.5 16.5 94 0.0 20 26   100.89     LegendNANA

Notes on Data Quality.

Legend

  • E = Estimated
  • M = Missing
  • NA = Not Available*
  • [empty] = Indicates an unobserved value
Date modified: